Weather in Biograd na Moru

Croatia     43°56′26″N   15°26′58″E
temp.,
°C
wind,
m/s
gust,
m/s
humid.,
%
clouds,
%
prec.,
mm/h
press.,
hPa
HPBL,
m
13 may, thu
thu1323:00+14sse33811 0.2 100940
02:00+13sse238198 0.2 100846
05:00+12e2278100 0.0 100728
08:00+15ssw136499 0.1 1007308
11:00+16ssw556392 1.0 1007900
14:00+17ssw666243 1.9 10081167
17:00+17s456145 0.3 1007781
20:00+14s5873100 0.4 1008315
14 may, fri
fri1423:00+12ese369121 1.8 1009161
02:00+12ene2285100 2.4 100975
05:00+12nne2295100 4.1 100993
08:00+14se227988 5.3 1010175
11:00+17sw34579 0.2 10111219
14:00+18wsw565514 0.4 10111310
17:00+18ssw3352100 0.0 1011947
20:00+14ese2267100 0.0 101025
15 may, sat
sat1523:00+15e3461100 0.0 1011111
02:00+14e4768100 0.1 1010232
05:00+14ese3568100 0.0 1009171
08:00+15e1270100 0.0 1010399
11:00+16wnw2268100 0.1 1011248
14:00+15wnw3475100 0.6 1011411
17:00+18w336123 0.2 10111141
20:00+14wnw22776 0.2 101116
16 may, sun
sun1623:00+12se118456 0.0 101219
02:00+13sse2281100 0.1 101241
05:00+13ese3382100 0.5 101178
08:00+13ese2282100 0.6 101265
11:00+15se2377100 0.1 1012245
14:00+15se3575100 0.1 1012487
17:00+15e3577100 0.0 1011139
20:00+15se3579100 0.1 1011146
17 may, mon
mon1723:00+14ese347893 0.1 101279
02:00+14e2376100 0.1 101175
05:00+14ese4876100 0.1 1010220
08:00+15ese41079100 0.2 1010387
11:00+20sse786759 0.1 1010736
14:00+20s896887 0.4 1010722
17:00+19sse8107088 0.1 1009632
20:00+17sse61082100 0.1 1008354